Year,Month,Day,Hour,Minute,Value (Times are PST for temperature in C)
2007,05,25,00,00,12.50
2007,05,25,00,01,12.40
2007,05,25,00,02,12.40
2007,05,25,00,03,12.40
2007,05,25,00,04,12.30
2007,05,25,00,05,12.30
2007,05,25,00,06,12.30
2007,05,25,00,07,12.30
2007,05,25,00,08,12.30
2007,05,25,00,09,12.20
2007,05,25,00,10,12.20
2007,05,25,00,11,12.20
2007,05,25,00,12,12.20
2007,05,25,00,13,12.30
2007,05,25,00,14,12.30
2007,05,25,00,15,12.30
2007,05,25,00,16,12.40
2007,05,25,00,17,12.40
2007,05,25,00,18,12.40
2007,05,25,00,19,12.40
2007,05,25,00,20,12.40
2007,05,25,00,21,12.40
2007,05,25,00,22,12.40
2007,05,25,00,23,12.40
2007,05,25,00,24,12.30
2007,05,25,00,25,12.30
2007,05,25,00,26,12.30
2007,05,25,00,27,12.20
2007,05,25,00,28,12.20
2007,05,25,00,29,12.20
2007,05,25,00,30,12.10
2007,05,25,00,31,12.10
2007,05,25,00,32,12.00
2007,05,25,00,33,12.00
2007,05,25,00,34,11.90
2007,05,25,00,35,11.80
2007,05,25,00,36,11.80
2007,05,25,00,37,11.70
2007,05,25,00,38,11.70
2007,05,25,00,39,11.60
2007,05,25,00,40,11.60
2007,05,25,00,41,11.60
2007,05,25,00,42,11.60
2007,05,25,00,43,11.60
2007,05,25,00,44,11.60
2007,05,25,00,45,11.50
2007,05,25,00,46,11.50
2007,05,25,00,47,11.50
2007,05,25,00,48,11.40
2007,05,25,00,49,11.40
2007,05,25,00,50,11.40
2007,05,25,00,51,11.40
2007,05,25,00,52,11.40
2007,05,25,00,53,11.40
2007,05,25,00,54,11.40
2007,05,25,00,55,11.40
2007,05,25,00,56,11.40
2007,05,25,00,57,11.40
2007,05,25,00,58,11.40
2007,05,25,00,59,11.50
2007,05,25,01,00,11.50
2007,05,25,01,01,11.50
2007,05,25,01,02,11.50
2007,05,25,01,03,11.50
2007,05,25,01,04,11.50
2007,05,25,01,05,11.50
2007,05,25,01,06,11.50
2007,05,25,01,07,11.40
2007,05,25,01,08,11.40
2007,05,25,01,09,11.40
2007,05,25,01,10,11.30
2007,05,25,01,11,11.30
2007,05,25,01,12,11.30
2007,05,25,01,13,11.20
2007,05,25,01,14,11.20
2007,05,25,01,15,11.10
2007,05,25,01,16,11.10
2007,05,25,01,17,11.10
2007,05,25,01,18,11.10
2007,05,25,01,19,11.00
2007,05,25,01,20,11.00
2007,05,25,01,21,10.90
2007,05,25,01,22,10.90
2007,05,25,01,23,10.90
2007,05,25,01,24,10.80
2007,05,25,01,25,10.80
2007,05,25,01,26,10.80
2007,05,25,01,27,10.70
2007,05,25,01,28,10.70
2007,05,25,01,29,10.70
2007,05,25,01,30,10.60
2007,05,25,01,31,10.60
2007,05,25,01,32,10.60
2007,05,25,01,33,10.60
2007,05,25,01,34,10.50
2007,05,25,01,35,10.50
2007,05,25,01,36,10.50
2007,05,25,01,37,10.50
2007,05,25,01,38,10.50
2007,05,25,01,39,10.50
2007,05,25,01,40,10.60
2007,05,25,01,41,10.60
2007,05,25,01,42,10.60
2007,05,25,01,43,10.60
2007,05,25,01,44,10.60
2007,05,25,01,45,10.60
2007,05,25,01,46,10.60
2007,05,25,01,47,10.60
2007,05,25,01,48,10.60
2007,05,25,01,49,10.60
2007,05,25,01,50,10.60
2007,05,25,01,51,10.60
2007,05,25,01,52,10.60
2007,05,25,01,53,10.60
2007,05,25,01,54,10.50
2007,05,25,01,55,10.50
2007,05,25,01,56,10.50
2007,05,25,01,57,10.50
2007,05,25,01,58,10.50
2007,05,25,01,59,10.40
2007,05,25,02,00,10.40
2007,05,25,02,01,10.40
2007,05,25,02,02,10.40
2007,05,25,02,03,10.40
2007,05,25,02,04,10.40
2007,05,25,02,05,10.40
2007,05,25,02,06,10.30
2007,05,25,02,07,10.30
2007,05,25,02,08,10.30
2007,05,25,02,09,10.30
2007,05,25,02,10,10.30
2007,05,25,02,11,10.30
2007,05,25,02,12,10.20
2007,05,25,02,13,10.20
2007,05,25,02,14,10.20
2007,05,25,02,15,10.20
2007,05,25,02,16,10.20
2007,05,25,02,17,10.20
2007,05,25,02,18,10.20
2007,05,25,02,19,10.10
2007,05,25,02,20,10.10
2007,05,25,02,21,10.10
2007,05,25,02,22,10.10
2007,05,25,02,23,10.10
2007,05,25,02,24,10.10
2007,05,25,02,25,10.10
2007,05,25,02,26,10.10
2007,05,25,02,27,10.10
2007,05,25,02,28,10.00
2007,05,25,02,29,10.00
2007,05,25,02,30,10.00
2007,05,25,02,31,10.00
2007,05,25,02,32,10.00
2007,05,25,02,33,9.90
2007,05,25,02,34,9.90
2007,05,25,02,35,9.90
2007,05,25,02,36,9.90
2007,05,25,02,37,9.90
2007,05,25,02,38,9.90
2007,05,25,02,39,9.90
2007,05,25,02,40,9.90
2007,05,25,02,41,9.90
2007,05,25,02,42,9.90
2007,05,25,02,43,9.90
2007,05,25,02,44,9.80
2007,05,25,02,45,9.80
2007,05,25,02,46,9.80
2007,05,25,02,47,9.80
2007,05,25,02,48,9.80
2007,05,25,02,49,9.80
2007,05,25,02,50,9.80
2007,05,25,02,51,9.70
2007,05,25,02,52,9.70
2007,05,25,02,53,9.70
2007,05,25,02,54,9.70
2007,05,25,02,55,9.70
2007,05,25,02,56,9.70
2007,05,25,02,57,9.60
2007,05,25,02,58,9.60
2007,05,25,02,59,9.60
2007,05,25,03,00,9.60
2007,05,25,03,01,9.60
2007,05,25,03,02,9.60
2007,05,25,03,03,9.60
2007,05,25,03,04,9.60
2007,05,25,03,05,9.50
2007,05,25,03,06,9.50
2007,05,25,03,07,9.50
2007,05,25,03,08,9.50
2007,05,25,03,09,9.50
2007,05,25,03,10,9.50
2007,05,25,03,11,9.50
2007,05,25,03,12,9.50
2007,05,25,03,13,9.50
2007,05,25,03,14,9.40
2007,05,25,03,15,9.40
2007,05,25,03,16,9.40
2007,05,25,03,17,9.40
2007,05,25,03,18,9.40
2007,05,25,03,19,9.40
2007,05,25,03,20,9.40
2007,05,25,03,21,9.40
2007,05,25,03,22,9.40
2007,05,25,03,23,9.40
2007,05,25,03,24,9.40
2007,05,25,03,25,9.40
2007,05,25,03,26,9.40
2007,05,25,03,27,9.40
2007,05,25,03,28,9.40
2007,05,25,03,29,9.40
2007,05,25,03,30,9.40
2007,05,25,03,31,9.40
2007,05,25,03,32,9.40
2007,05,25,03,33,9.40
2007,05,25,03,34,9.40
2007,05,25,03,35,9.40
2007,05,25,03,36,9.40
2007,05,25,03,37,9.40
2007,05,25,03,38,9.40
2007,05,25,03,39,9.40
2007,05,25,03,40,9.40
2007,05,25,03,41,9.40
2007,05,25,03,42,9.30
2007,05,25,03,43,9.40
2007,05,25,03,44,9.30
2007,05,25,03,45,9.30
2007,05,25,03,46,9.30
2007,05,25,03,47,9.30
2007,05,25,03,48,9.30
2007,05,25,03,49,9.30
2007,05,25,03,50,9.30
2007,05,25,03,51,9.30
2007,05,25,03,52,9.30
2007,05,25,03,53,9.20
2007,05,25,03,54,9.20
2007,05,25,03,55,9.20
2007,05,25,03,56,9.20
2007,05,25,03,57,9.20
2007,05,25,03,58,9.20
2007,05,25,03,59,9.20
2007,05,25,04,00,9.20
2007,05,25,04,01,9.10
2007,05,25,04,02,9.10
2007,05,25,04,03,9.10
2007,05,25,04,04,9.10
2007,05,25,04,05,9.10
2007,05,25,04,06,9.10
2007,05,25,04,07,9.10
2007,05,25,04,08,9.10
2007,05,25,04,09,9.10
2007,05,25,04,10,9.00
2007,05,25,04,11,9.00
2007,05,25,04,12,9.00
2007,05,25,04,13,9.00
2007,05,25,04,14,9.00
2007,05,25,04,15,8.90
2007,05,25,04,16,8.90
2007,05,25,04,17,8.90
2007,05,25,04,18,8.90
2007,05,25,04,19,8.90
2007,05,25,04,20,8.80
2007,05,25,04,21,8.80
2007,05,25,04,22,8.80
2007,05,25,04,23,8.80
2007,05,25,04,24,8.80
2007,05,25,04,25,8.70
2007,05,25,04,26,8.70
2007,05,25,04,27,8.70
2007,05,25,04,28,8.70
2007,05,25,04,29,8.70
2007,05,25,04,30,8.70
2007,05,25,04,31,8.60
2007,05,25,04,32,8.60
2007,05,25,04,33,8.60
2007,05,25,04,34,8.60
2007,05,25,04,35,8.60
2007,05,25,04,36,8.60
2007,05,25,04,37,8.60
2007,05,25,04,38,8.60
2007,05,25,04,39,8.50
2007,05,25,04,40,8.50
2007,05,25,04,41,8.50
2007,05,25,04,42,8.50
2007,05,25,04,43,8.40
2007,05,25,04,44,8.40
2007,05,25,04,45,8.40
2007,05,25,04,46,8.40
2007,05,25,04,47,8.40
2007,05,25,04,48,8.40
2007,05,25,04,49,8.30
2007,05,25,04,50,8.30
2007,05,25,04,51,8.30
2007,05,25,04,52,8.30
2007,05,25,04,53,8.30
2007,05,25,04,54,8.20
2007,05,25,04,55,8.20
2007,05,25,04,56,8.20
2007,05,25,04,57,8.20
2007,05,25,04,58,8.20
2007,05,25,04,59,8.20
2007,05,25,05,00,8.10
2007,05,25,05,01,8.10
2007,05,25,05,02,8.10
2007,05,25,05,03,8.10
2007,05,25,05,04,8.10
2007,05,25,05,05,8.10
2007,05,25,05,06,8.10
2007,05,25,05,07,8.00
2007,05,25,05,08,8.00
2007,05,25,05,09,8.00
2007,05,25,05,10,7.90
2007,05,25,05,11,7.90
2007,05,25,05,12,7.90
2007,05,25,05,13,7.90
2007,05,25,05,14,7.90
2007,05,25,05,15,7.80
2007,05,25,05,16,7.80
2007,05,25,05,17,7.80
2007,05,25,05,18,7.80
2007,05,25,05,19,7.80
2007,05,25,05,20,7.80
2007,05,25,05,21,7.80
2007,05,25,05,22,7.80
2007,05,25,05,23,7.80
2007,05,25,05,24,7.80
2007,05,25,05,25,7.80
2007,05,25,05,26,7.70
2007,05,25,05,27,7.70
2007,05,25,05,28,7.70
2007,05,25,05,29,7.70
2007,05,25,05,30,7.70
2007,05,25,05,31,7.70
2007,05,25,05,32,7.70
2007,05,25,05,33,7.70
2007,05,25,05,34,7.70
2007,05,25,05,35,7.60
2007,05,25,05,36,7.60
2007,05,25,05,37,7.60
2007,05,25,05,38,7.60
2007,05,25,05,39,7.60
2007,05,25,05,40,7.60
2007,05,25,05,41,7.60
2007,05,25,05,42,7.60
2007,05,25,05,43,7.60
2007,05,25,05,44,7.60
2007,05,25,05,45,7.60
2007,05,25,05,46,7.60
2007,05,25,05,47,7.60
2007,05,25,05,48,7.60
2007,05,25,05,49,7.60
2007,05,25,05,50,7.60
2007,05,25,05,51,7.60
2007,05,25,05,52,7.50
2007,05,25,05,53,7.50
2007,05,25,05,54,7.50
2007,05,25,05,55,7.50
2007,05,25,05,56,7.50
2007,05,25,05,57,7.50
2007,05,25,05,58,7.50
2007,05,25,05,59,7.50
2007,05,25,06,00,7.50
2007,05,25,06,01,7.50
2007,05,25,06,02,7.50
2007,05,25,06,03,7.50
2007,05,25,06,04,7.50
2007,05,25,06,05,7.50
2007,05,25,06,06,7.50
2007,05,25,06,07,7.50
2007,05,25,06,08,7.50
2007,05,25,06,09,7.60
2007,05,25,06,10,7.60
2007,05,25,06,11,7.60
2007,05,25,06,12,7.60
2007,05,25,06,13,7.60
2007,05,25,06,14,7.60
2007,05,25,06,15,7.60
2007,05,25,06,16,7.60
2007,05,25,06,17,7.60
2007,05,25,06,18,7.60
2007,05,25,06,19,7.60
2007,05,25,06,20,7.60
2007,05,25,06,21,7.60
2007,05,25,06,22,7.60
2007,05,25,06,23,7.60
2007,05,25,06,24,7.60
2007,05,25,06,25,7.60
2007,05,25,06,26,7.60
2007,05,25,06,27,7.70
2007,05,25,06,28,7.70
2007,05,25,06,29,7.70
2007,05,25,06,30,7.70
2007,05,25,06,31,7.70
2007,05,25,06,32,7.70
2007,05,25,06,33,7.70
2007,05,25,06,34,7.70
2007,05,25,06,35,7.80
2007,05,25,06,36,7.80
2007,05,25,06,37,7.80
2007,05,25,06,38,7.80
2007,05,25,06,39,7.80
2007,05,25,06,40,7.80
2007,05,25,06,41,7.80
2007,05,25,06,42,7.90
2007,05,25,06,43,7.90
2007,05,25,06,44,7.90
2007,05,25,06,45,7.90
2007,05,25,06,46,8.00
2007,05,25,06,47,8.00
2007,05,25,06,48,8.10
2007,05,25,06,49,8.10
2007,05,25,06,50,8.10
2007,05,25,06,51,8.10
2007,05,25,06,52,8.20
2007,05,25,06,53,8.20
2007,05,25,06,54,8.20
2007,05,25,06,55,8.30
2007,05,25,06,56,8.30
2007,05,25,06,57,8.30
2007,05,25,06,58,8.30
2007,05,25,06,59,8.40
2007,05,25,07,00,8.40
2007,05,25,07,01,8.40
2007,05,25,07,02,8.40
2007,05,25,07,03,8.40
2007,05,25,07,04,8.50
2007,05,25,07,05,8.50
2007,05,25,07,06,8.60
2007,05,25,07,07,8.60
2007,05,25,07,08,8.60
2007,05,25,07,09,8.60
2007,05,25,07,10,8.70
2007,05,25,07,11,8.70
2007,05,25,07,12,8.70
2007,05,25,07,13,8.70
2007,05,25,07,14,8.80
2007,05,25,07,15,8.80
2007,05,25,07,16,8.80
2007,05,25,07,17,8.90
2007,05,25,07,18,8.90
2007,05,25,07,19,9.00
2007,05,25,07,20,9.00
2007,05,25,07,21,9.00
2007,05,25,07,22,9.10
2007,05,25,07,23,9.10
2007,05,25,07,24,9.10
2007,05,25,07,25,9.20
2007,05,25,07,26,9.20
2007,05,25,07,27,9.30
2007,05,25,07,28,9.30
2007,05,25,07,29,9.40
2007,05,25,07,30,9.40
2007,05,25,07,31,9.50
2007,05,25,07,32,9.60
2007,05,25,07,33,9.60
2007,05,25,07,34,9.70
2007,05,25,07,35,9.80
2007,05,25,07,36,9.90
2007,05,25,07,37,9.90
2007,05,25,07,38,10.00
2007,05,25,07,39,10.10
2007,05,25,07,40,10.10
2007,05,25,07,41,10.20
2007,05,25,07,42,10.30
2007,05,25,07,43,10.40
2007,05,25,07,44,10.50
2007,05,25,07,45,10.50
2007,05,25,07,46,10.60
2007,05,25,07,47,10.70
2007,05,25,07,48,10.80
2007,05,25,07,49,10.80
2007,05,25,07,50,10.90
2007,05,25,07,51,11.00
2007,05,25,07,52,11.10
2007,05,25,07,53,11.10
2007,05,25,07,54,11.20
2007,05,25,07,55,11.30
2007,05,25,07,56,11.40
2007,05,25,07,57,11.50
2007,05,25,07,58,11.60
2007,05,25,07,59,11.60
2007,05,25,08,00,11.70
2007,05,25,08,01,11.70
2007,05,25,08,02,11.80
2007,05,25,08,03,11.80
2007,05,25,08,04,11.80
2007,05,25,08,05,11.90
2007,05,25,08,06,11.90
2007,05,25,08,07,12.00
2007,05,25,08,08,12.00
2007,05,25,08,09,12.10
2007,05,25,08,10,12.10
2007,05,25,08,11,12.10
2007,05,25,08,12,12.20
2007,05,25,08,13,12.20
2007,05,25,08,14,12.30
2007,05,25,08,15,12.30
2007,05,25,08,16,12.30
2007,05,25,08,17,12.40
2007,05,25,08,18,12.40
2007,05,25,08,19,12.50
2007,05,25,08,20,12.50
2007,05,25,08,21,12.60
2007,05,25,08,22,12.60
2007,05,25,08,23,12.70
2007,05,25,08,24,12.70
2007,05,25,08,25,12.70
2007,05,25,08,26,12.80
2007,05,25,08,27,12.80
2007,05,25,08,28,12.90
2007,05,25,08,29,12.90
2007,05,25,08,30,13.00
2007,05,25,08,31,13.10
2007,05,25,08,32,13.10
2007,05,25,08,33,13.20
2007,05,25,08,34,13.20
2007,05,25,08,35,13.30
2007,05,25,08,36,13.30
2007,05,25,08,37,13.40
2007,05,25,08,38,13.40
2007,05,25,08,39,13.40
2007,05,25,08,40,13.40
2007,05,25,08,41,13.40
2007,05,25,08,42,13.50
2007,05,25,08,43,13.50
2007,05,25,08,44,13.60
2007,05,25,08,45,13.60
2007,05,25,08,46,13.70
2007,05,25,08,47,13.80
2007,05,25,08,48,13.80
2007,05,25,08,49,13.90
2007,05,25,08,50,13.90
2007,05,25,08,51,14.00
2007,05,25,08,52,14.10
2007,05,25,08,53,14.10
2007,05,25,08,54,14.20
2007,05,25,08,55,14.20
2007,05,25,08,56,14.30
2007,05,25,08,57,14.30
2007,05,25,08,58,14.30
2007,05,25,08,59,14.30
2007,05,25,09,00,14.30
2007,05,25,09,01,14.30
2007,05,25,09,02,14.40
2007,05,25,09,03,14.40
2007,05,25,09,04,14.40
2007,05,25,09,05,14.40
2007,05,25,09,06,14.40
2007,05,25,09,07,14.50
2007,05,25,09,08,14.50
2007,05,25,09,09,14.60
2007,05,25,09,10,14.60
2007,05,25,09,11,14.60
2007,05,25,09,12,14.60
2007,05,25,09,13,14.70
2007,05,25,09,14,14.70
2007,05,25,09,15,14.70
2007,05,25,09,16,14.80
2007,05,25,09,17,14.80
2007,05,25,09,18,14.80
2007,05,25,09,19,14.80
2007,05,25,09,20,14.80
2007,05,25,09,21,14.80
2007,05,25,09,22,14.80
2007,05,25,09,23,14.70
2007,05,25,09,24,14.70
2007,05,25,09,25,14.70
2007,05,25,09,26,14.70
2007,05,25,09,27,14.70
2007,05,25,09,28,14.60
2007,05,25,09,29,14.60
2007,05,25,09,30,14.60
2007,05,25,09,31,14.60
2007,05,25,09,32,14.70
2007,05,25,09,33,14.70
2007,05,25,09,34,14.70
2007,05,25,09,35,14.80
2007,05,25,09,36,14.80
2007,05,25,09,37,14.90
2007,05,25,09,38,15.00
2007,05,25,09,39,15.00
2007,05,25,09,40,15.00
2007,05,25,09,41,15.00
2007,05,25,09,42,15.10
2007,05,25,09,43,15.30
2007,05,25,09,44,15.40
2007,05,25,09,45,15.50
2007,05,25,09,46,15.60
2007,05,25,09,47,15.70
2007,05,25,09,48,15.80
2007,05,25,09,49,15.80
2007,05,25,09,50,15.90
2007,05,25,09,51,15.90
2007,05,25,09,52,15.90
2007,05,25,09,53,15.90
2007,05,25,09,54,15.90
2007,05,25,09,55,15.90
2007,05,25,09,56,15.80
2007,05,25,09,57,15.80
2007,05,25,09,58,15.80
2007,05,25,09,59,15.80
2007,05,25,10,00,15.70
2007,05,25,10,01,15.70
2007,05,25,10,02,15.60
2007,05,25,10,03,15.60
2007,05,25,10,04,15.60
2007,05,25,10,05,15.70
2007,05,25,10,06,15.70
2007,05,25,10,07,15.70
2007,05,25,10,08,15.70
2007,05,25,10,09,15.80
2007,05,25,10,10,15.80
2007,05,25,10,11,15.80
2007,05,25,10,12,15.90
2007,05,25,10,13,15.90
2007,05,25,10,14,16.00
2007,05,25,10,15,16.00
2007,05,25,10,16,16.10
2007,05,25,10,17,16.10
2007,05,25,10,18,16.20
2007,05,25,10,19,16.20
2007,05,25,10,20,16.30
2007,05,25,10,21,16.30
2007,05,25,10,22,16.40
2007,05,25,10,23,16.40
2007,05,25,10,24,16.40
2007,05,25,10,25,16.40
2007,05,25,10,26,16.40
2007,05,25,10,27,16.40
2007,05,25,10,28,16.40
2007,05,25,10,29,16.40
2007,05,25,10,30,16.40
2007,05,25,10,31,16.40
2007,05,25,10,32,16.40
2007,05,25,10,33,16.50
2007,05,25,10,34,16.60
2007,05,25,10,35,16.70
2007,05,25,10,36,16.80
2007,05,25,10,37,16.90
2007,05,25,10,38,17.00
2007,05,25,10,39,17.10
2007,05,25,10,40,17.10
2007,05,25,10,41,17.20
2007,05,25,10,42,17.30
2007,05,25,10,43,17.30
2007,05,25,10,44,17.40
2007,05,25,10,45,17.40
2007,05,25,10,46,17.40
2007,05,25,10,47,17.50
2007,05,25,10,48,17.50
2007,05,25,10,49,17.50
2007,05,25,10,50,17.50
2007,05,25,10,51,17.40
2007,05,25,10,52,17.40
2007,05,25,10,53,17.40
2007,05,25,10,54,17.40
2007,05,25,10,55,17.50
2007,05,25,10,56,17.50
2007,05,25,10,57,17.60
2007,05,25,10,58,17.70
2007,05,25,10,59,17.80
2007,05,25,11,00,17.90
2007,05,25,11,01,18.00
2007,05,25,11,02,18.10
2007,05,25,11,03,18.20
2007,05,25,11,04,18.30
2007,05,25,11,05,18.30
2007,05,25,11,06,18.40
2007,05,25,11,07,18.40
2007,05,25,11,08,18.40
2007,05,25,11,09,18.40
2007,05,25,11,10,18.30
2007,05,25,11,11,18.30
2007,05,25,11,12,18.30
2007,05,25,11,13,18.30
2007,05,25,11,14,18.40
2007,05,25,11,15,18.40
2007,05,25,11,16,18.30
2007,05,25,11,17,18.40
2007,05,25,11,18,18.40
2007,05,25,11,19,18.40
2007,05,25,11,20,18.40
2007,05,25,11,21,18.40
2007,05,25,11,22,18.50
2007,05,25,11,23,18.50
2007,05,25,11,24,18.60
2007,05,25,11,25,18.70
2007,05,25,11,26,18.80
2007,05,25,11,27,18.80
2007,05,25,11,28,18.80
2007,05,25,11,29,18.80
2007,05,25,11,30,18.80
2007,05,25,11,31,18.80
2007,05,25,11,32,18.90
2007,05,25,11,33,18.90
2007,05,25,11,34,18.90
2007,05,25,11,35,18.90
2007,05,25,11,36,18.90
2007,05,25,11,37,19.00
2007,05,25,11,38,19.10
2007,05,25,11,39,19.20
2007,05,25,11,40,19.20
2007,05,25,11,41,19.20
2007,05,25,11,42,19.20
2007,05,25,11,43,19.10
2007,05,25,11,44,19.10
2007,05,25,11,45,19.10
2007,05,25,11,46,19.10
2007,05,25,11,47,19.20
2007,05,25,11,48,19.20
2007,05,25,11,49,19.20
2007,05,25,11,50,19.20
2007,05,25,11,51,19.20
2007,05,25,11,52,19.20
2007,05,25,11,53,19.20
2007,05,25,11,54,19.20
2007,05,25,11,55,19.30
2007,05,25,11,56,19.30
2007,05,25,11,57,19.30
2007,05,25,11,58,19.30
2007,05,25,11,59,19.30
2007,05,25,12,00,19.40
2007,05,25,12,01,19.40
2007,05,25,12,02,19.50
2007,05,25,12,03,19.50
2007,05,25,12,04,19.60
2007,05,25,12,05,19.60
2007,05,25,12,06,19.70
2007,05,25,12,07,19.70
2007,05,25,12,08,19.70
2007,05,25,12,09,19.70
2007,05,25,12,10,19.60
2007,05,25,12,11,19.60
2007,05,25,12,12,19.60
2007,05,25,12,13,19.50
2007,05,25,12,14,19.50
2007,05,25,12,15,19.50
2007,05,25,12,16,19.50
2007,05,25,12,17,19.60
2007,05,25,12,18,19.70
2007,05,25,12,19,19.70
2007,05,25,12,20,19.80
2007,05,25,12,21,19.80
2007,05,25,12,22,19.90
2007,05,25,12,23,20.00
2007,05,25,12,24,20.10
2007,05,25,12,25,20.10
2007,05,25,12,26,20.20
2007,05,25,12,27,20.10
2007,05,25,12,28,20.10
2007,05,25,12,29,20.20
2007,05,25,12,30,20.20
2007,05,25,12,31,20.20
2007,05,25,12,32,20.10
2007,05,25,12,33,20.10
2007,05,25,12,34,20.10
2007,05,25,12,35,20.00
2007,05,25,12,36,19.90
2007,05,25,12,37,19.90
2007,05,25,12,38,19.90
2007,05,25,12,39,19.90
2007,05,25,12,40,19.90
2007,05,25,12,41,19.90
2007,05,25,12,42,19.90
2007,05,25,12,43,19.90
2007,05,25,12,44,19.90
2007,05,25,12,45,19.90
2007,05,25,12,46,19.90
2007,05,25,12,47,19.90
2007,05,25,12,48,19.80
2007,05,25,12,49,19.80
2007,05,25,12,50,19.70
2007,05,25,12,51,19.70
2007,05,25,12,52,19.70
2007,05,25,12,53,19.70
2007,05,25,12,54,19.80
2007,05,25,12,55,19.70
2007,05,25,12,56,19.70
2007,05,25,12,57,19.60
2007,05,25,12,58,19.60
2007,05,25,12,59,19.60
2007,05,25,13,00,19.50
2007,05,25,13,01,19.50
2007,05,25,13,02,19.60
2007,05,25,13,03,19.60
2007,05,25,13,04,19.60
2007,05,25,13,05,19.70
2007,05,25,13,06,19.70
2007,05,25,13,07,19.70
2007,05,25,13,08,19.70
2007,05,25,13,09,19.60
2007,05,25,13,10,19.60
2007,05,25,13,11,19.60
2007,05,25,13,12,19.50
2007,05,25,13,13,19.50
2007,05,25,13,14,19.50
2007,05,25,13,15,19.40
2007,05,25,13,16,19.50
2007,05,25,13,17,19.50
2007,05,25,13,18,19.60
2007,05,25,13,19,19.70
2007,05,25,13,20,19.80
2007,05,25,13,21,19.80
2007,05,25,13,22,19.90
2007,05,25,13,23,19.90
2007,05,25,13,24,19.90
2007,05,25,13,25,19.90
2007,05,25,13,26,19.80
2007,05,25,13,27,19.90
2007,05,25,13,28,19.90
2007,05,25,13,29,19.90
2007,05,25,13,30,19.90
2007,05,25,13,31,19.90
2007,05,25,13,32,20.00
2007,05,25,13,33,20.00
2007,05,25,13,34,20.00
2007,05,25,13,35,20.00
2007,05,25,13,36,20.00
2007,05,25,13,37,20.00
2007,05,25,13,38,20.00
2007,05,25,13,39,20.00
2007,05,25,13,40,20.00
2007,05,25,13,41,20.00
2007,05,25,13,42,20.00
2007,05,25,13,43,20.00
2007,05,25,13,44,20.00
2007,05,25,13,45,20.10
2007,05,25,13,46,20.10
2007,05,25,13,47,20.20
2007,05,25,13,48,20.30
2007,05,25,13,49,20.30
2007,05,25,13,50,20.40
2007,05,25,13,51,20.50
2007,05,25,13,52,20.70
2007,05,25,13,53,20.80
2007,05,25,13,54,20.90
2007,05,25,13,55,20.90
2007,05,25,13,56,20.90
2007,05,25,13,57,20.80
2007,05,25,13,58,20.90
2007,05,25,13,59,21.00
2007,05,25,14,00,21.10
2007,05,25,14,01,21.20
2007,05,25,14,02,21.30
2007,05,25,14,03,21.40
2007,05,25,14,04,21.50
2007,05,25,14,05,21.60
2007,05,25,14,06,21.50
2007,05,25,14,07,21.50
2007,05,25,14,08,21.40
2007,05,25,14,09,21.40
2007,05,25,14,10,21.40
2007,05,25,14,11,21.40
2007,05,25,14,12,21.40
2007,05,25,14,13,21.40
2007,05,25,14,14,21.40
2007,05,25,14,15,21.40
2007,05,25,14,16,21.40
2007,05,25,14,17,21.40
2007,05,25,14,18,21.40
2007,05,25,14,19,21.40
2007,05,25,14,20,21.40
2007,05,25,14,21,21.40
2007,05,25,14,22,21.40
2007,05,25,14,23,21.40
2007,05,25,14,24,21.40
2007,05,25,14,25,21.50
2007,05,25,14,26,21.50
2007,05,25,14,27,21.60
2007,05,25,14,28,21.60
2007,05,25,14,29,21.60
2007,05,25,14,30,21.60
2007,05,25,14,31,21.60
2007,05,25,14,32,21.60
2007,05,25,14,33,21.50
2007,05,25,14,34,21.50
2007,05,25,14,35,21.50
2007,05,25,14,36,21.50
2007,05,25,14,37,21.40
2007,05,25,14,38,21.30
2007,05,25,14,39,21.20
2007,05,25,14,40,21.10
2007,05,25,14,41,21.10
2007,05,25,14,42,21.10
2007,05,25,14,43,21.00
2007,05,25,14,44,21.00
2007,05,25,14,45,20.80
2007,05,25,14,46,20.70
2007,05,25,14,47,20.60
2007,05,25,14,48,20.60
2007,05,25,14,49,20.40
2007,05,25,14,50,20.30
2007,05,25,14,51,20.30
2007,05,25,14,52,20.20
2007,05,25,14,53,20.10
2007,05,25,14,54,20.00
2007,05,25,14,55,20.00
2007,05,25,14,56,20.00
2007,05,25,14,57,20.00
2007,05,25,14,58,20.00
2007,05,25,14,59,20.00
2007,05,25,15,00,20.00
2007,05,25,15,01,20.00
2007,05,25,15,02,20.00
2007,05,25,15,03,20.00
2007,05,25,15,04,20.00
2007,05,25,15,05,19.90
2007,05,25,15,06,19.90
2007,05,25,15,07,19.90
2007,05,25,15,08,19.80
2007,05,25,15,09,19.80
2007,05,25,15,10,19.80
2007,05,25,15,11,19.80
2007,05,25,15,12,19.80
2007,05,25,15,13,19.80
2007,05,25,15,14,19.80
2007,05,25,15,15,19.70
2007,05,25,15,16,19.70
2007,05,25,15,17,19.70
2007,05,25,15,18,19.60
2007,05,25,15,19,19.60
2007,05,25,15,20,19.60
2007,05,25,15,21,19.60
2007,05,25,15,22,19.60
2007,05,25,15,23,19.60
2007,05,25,15,24,19.60
2007,05,25,15,25,19.60
2007,05,25,15,26,19.60
2007,05,25,15,27,19.60
2007,05,25,15,28,19.60
2007,05,25,15,29,19.60
2007,05,25,15,30,19.60
2007,05,25,15,31,19.60
2007,05,25,15,32,19.60
2007,05,25,15,33,19.60
2007,05,25,15,34,19.70
2007,05,25,15,35,19.70
2007,05,25,15,36,19.80
2007,05,25,15,37,19.80
2007,05,25,15,38,19.80
2007,05,25,15,39,19.80
2007,05,25,15,40,19.80
2007,05,25,15,41,19.80
2007,05,25,15,42,19.80
2007,05,25,15,43,19.80
2007,05,25,15,44,19.70
2007,05,25,15,45,19.70
2007,05,25,15,46,19.70
2007,05,25,15,47,19.70
2007,05,25,15,48,19.60
2007,05,25,15,49,19.60
2007,05,25,15,50,19.60
2007,05,25,15,51,19.70
2007,05,25,15,52,19.70
2007,05,25,15,53,19.70
2007,05,25,15,54,19.70
2007,05,25,15,55,19.80
2007,05,25,15,56,19.80
2007,05,25,15,57,19.80
2007,05,25,15,58,19.80
2007,05,25,15,59,19.80
2007,05,25,16,00,19.80
2007,05,25,16,01,19.80
2007,05,25,16,02,19.80
2007,05,25,16,03,19.80
2007,05,25,16,04,19.90
2007,05,25,16,05,19.90
2007,05,25,16,06,20.00
2007,05,25,16,07,20.00
2007,05,25,16,08,20.10
2007,05,25,16,09,20.10
2007,05,25,16,10,20.10
2007,05,25,16,11,20.10
2007,05,25,16,12,20.10
2007,05,25,16,13,20.20
2007,05,25,16,14,20.20
2007,05,25,16,15,20.20
2007,05,25,16,16,20.30
2007,05,25,16,17,20.30
2007,05,25,16,18,20.30
2007,05,25,16,19,20.30
2007,05,25,16,20,20.30
2007,05,25,16,21,20.40
2007,05,25,16,22,20.50
2007,05,25,16,23,20.50
2007,05,25,16,24,20.50
2007,05,25,16,25,20.40
2007,05,25,16,26,20.40
2007,05,25,16,27,20.40
2007,05,25,16,28,20.50
2007,05,25,16,29,20.50
2007,05,25,16,30,20.40
2007,05,25,16,31,20.40
2007,05,25,16,32,20.30
2007,05,25,16,33,20.40
2007,05,25,16,34,20.40
2007,05,25,16,35,20.50
2007,05,25,16,36,20.50
2007,05,25,16,37,20.60
2007,05,25,16,38,20.60
2007,05,25,16,39,20.60
2007,05,25,16,40,20.50
2007,05,25,16,41,20.50
2007,05,25,16,42,20.40
2007,05,25,16,43,20.40
2007,05,25,16,44,20.40
2007,05,25,16,45,20.30
2007,05,25,16,46,20.30
2007,05,25,16,47,20.30
2007,05,25,16,48,20.30
2007,05,25,16,49,20.30
2007,05,25,16,50,20.30
2007,05,25,16,51,20.30
2007,05,25,16,52,20.20
2007,05,25,16,53,20.20
2007,05,25,16,54,20.20
2007,05,25,16,55,20.20
2007,05,25,16,56,20.20
2007,05,25,16,57,20.30
2007,05,25,16,58,20.20
2007,05,25,16,59,20.20
2007,05,25,17,00,20.20
2007,05,25,17,01,20.20
2007,05,25,17,02,20.10
2007,05,25,17,03,20.10
2007,05,25,17,04,20.10
2007,05,25,17,05,20.10
2007,05,25,17,06,20.10
2007,05,25,17,07,20.00
2007,05,25,17,08,20.00
2007,05,25,17,09,20.00
2007,05,25,17,10,19.90
2007,05,25,17,11,19.90
2007,05,25,17,12,19.90
2007,05,25,17,13,19.90
2007,05,25,17,14,20.00
2007,05,25,17,15,20.00
2007,05,25,17,16,20.00
2007,05,25,17,17,20.10
2007,05,25,17,18,20.10
2007,05,25,17,19,20.10
2007,05,25,17,20,20.00
2007,05,25,17,21,20.00
2007,05,25,17,22,20.00
2007,05,25,17,23,20.00
2007,05,25,17,24,20.00
2007,05,25,17,25,20.00
2007,05,25,17,26,19.90
2007,05,25,17,27,19.90
2007,05,25,17,28,19.80
2007,05,25,17,29,19.80
2007,05,25,17,30,19.80
2007,05,25,17,31,19.80
2007,05,25,17,32,19.70